This is the latest recevied weather packets stored in our database for station/object OM6ACB-6. If no packets are shown the sender has not sent any weather packets the latest 10 day(s).
| Time | Temp. | Humidity | Pressure | Rain* | Wind** | Luminosity | Snow |
|---|---|---|---|---|---|---|---|
| 1787873411 | 17.78° C | 24% | 1024.1 hPa | 0 mm | - | - | - |
| 1787872811 | 17.78° C | 24% | 1024.3 hPa | 0 mm | - | - | - |
| 1787872211 | 17.78° C | 24% | 1024.3 hPa | 0 mm | - | - | - |
| 1787871610 | 18.33° C | 23% | 1024.3 hPa | 0 mm | - | - | - |
| 1787871010 | 17.78° C | 24% | 1024.3 hPa | 0 mm | - | - | - |
| 1787870410 | 18.33° C | 23% | 1024.4 hPa | 0 mm | - | - | - |
| 1787869810 | 18.33° C | 23% | 1024.5 hPa | 0 mm | - | - | - |
| 1787869209 | 18.33° C | 23% | 1024.4 hPa | 0 mm | - | - | - |
| 1787868609 | 18.33° C | 23% | 1024.4 hPa | 0 mm | - | - | - |
| 1787868009 | 18.89° C | 23% | 1024.4 hPa | 0 mm | - | - | - |
| 1787867408 | 18.89° C | 23% | 1024.5 hPa | 0 mm | - | - | - |
| 1787866808 | 18.89° C | 23% | 1024.3 hPa | 0 mm | - | - | - |
| 1787866208 | 18.89° C | 23% | 1024.4 hPa | 0 mm | - | - | - |
| 1787865607 | 19.44° C | 23% | 1024.3 hPa | 0 mm | - | - | - |
| 1787865007 | 18.89° C | 23% | 1024.3 hPa | 0 mm | - | - | - |
| 1787864407 | 19.44° C | 23% | 1024.2 hPa | 0 mm | - | - | - |
| 1787863807 | 19.44° C | 23% | 1024.2 hPa | 0 mm | - | - | - |
| 1787863206 | 19.44° C | 23% | 1024.2 hPa | 0 mm | - | - | - |
| 1787862606 | 19.44° C | 23% | 1024.2 hPa | 0 mm | - | - | - |
| 1787862006 | 20° C | 23% | 1024.2 hPa | 0 mm | - | - | - |
| 1787861405 | 20° C | 23% | 1024.2 hPa | 0 mm | - | - | - |
| 1787860805 | 20° C | 22% | 1024.2 hPa | 0 mm | - | - | - |
| 1787860205 | 20° C | 23% | 1024.1 hPa | 0 mm | - | - | - |
| 1787859605 | 20° C | 22% | 1024.2 hPa | 0 mm | - | - | - |
| 1787859004 | 20.56° C | 22% | 1024.1 hPa | 0 mm | - | - | - |
* Rain latest hour (hover to see other rain measurements)
** Current wind speed in m/s (hover to see current wind gust speed)